Time_in_sec,gx,gy,gz
1312468452.82414865,0.00088681,0.00717685,-0.99997385
1312468452.87112999,0.00103435,0.00726119,-0.99997310
1312468452.92310667,0.00104412,0.00704831,-0.99997462
1312468452.97114038,0.00089838,0.00706677,-0.99997463
1312468453.02308655,0.00134008,0.00722612,-0.99997299
1312468453.07107615,0.00104702,0.00698378,-0.99997506
1312468453.12320280,0.00113022,0.00687686,-0.99997572
1312468453.17113400,0.00084234,0.00695924,-0.99997543
1312468453.22320986,0.00072404,0.00676025,-0.99997689
1312468453.27210307,0.00209100,0.00710744,-0.99997256
1312468453.32421279,0.00209291,0.00696993,-0.99997352
1312468453.37110305,0.00204964,0.00718655,-0.99997208
1312468453.42037630,0.00181850,0.00731122,-0.99997162
1312468453.47211742,0.00185192,0.00720757,-0.99997231
1312468453.52312469,0.00214447,0.00795544,-0.99996606
1312468453.57111812,0.00211124,0.00805391,-0.99996534
1312468453.62022257,0.00216315,0.00806540,-0.99996513
1312468453.66336131,0.00198729,0.00809324,-0.99996527
1312468453.72410178,0.00184978,0.00801248,-0.99996619
1312468453.77118993,0.00080538,0.00817005,-0.99996630
1312468453.82310319,0.00086951,0.00818002,-0.99996617
1312468453.87113118,0.00075212,0.00835897,-0.99996478
1312468453.92309690,0.00076585,0.00864403,-0.99996235
1312468453.97166896,0.00081287,0.00849164,-0.99996361
1312468454.02020335,0.00006176,0.00788919,-0.99996888
1312468454.07126951,-0.00000646,0.00818111,-0.99996653
1312468454.12322497,-0.00013247,0.00825365,-0.99996593
1312468454.17176270,-0.00030852,0.00805509,-0.99996751
1312468454.22309613,-0.00050018,0.00799211,-0.99996794
1312468454.27219677,0.00009265,0.00804450,-0.99996764
1312468454.32307792,-0.00010454,0.00778235,-0.99996971
1312468454.37215710,-0.00007800,0.00772574,-0.99997015
1312468454.42016578,-0.00022676,0.00754278,-0.99997153
1312468454.47216177,-0.00023483,0.00781172,-0.99996946
1312468454.52372456,-0.00081243,0.00733121,-0.99997280
1312468454.57215691,-0.00074531,0.00746949,-0.99997183
1312468454.62308049,-0.00085941,0.00753356,-0.99997125
1312468454.66419053,-0.00096414,0.00760686,-0.99997060
1312468454.72310758,-0.00084448,0.00737027,-0.99997248
1312468454.77213001,-0.00045255,0.00726844,-0.99997348
1312468454.82309365,-0.00048060,0.00752728,-0.99997155
1312468454.87108850,-0.00036938,0.00731169,-0.99997320
1312468454.92336392,-0.00048519,0.00726875,-0.99997346
1312468454.97112060,-0.00046794,0.00726627,-0.99997349
1312468455.02307963,-0.00068681,0.00713106,-0.99997434
1312468455.07223368,-0.00062281,0.00703553,-0.99997506
1312468455.12345552,-0.00072571,0.00699896,-0.99997524
1312468455.17108107,-0.00076865,0.00706109,-0.99997477
1312468455.22413278,-0.00081878,0.00686326,-0.99997611
1312468455.27110767,-0.00040984,0.00686632,-0.99997634
1312468455.32413554,-0.00045391,0.00701670,-0.99997528
1312468455.37111592,-0.00044913,0.00700052,-0.99997540
1312468455.42067719,-0.00061139,0.00701325,-0.99997522
1312468455.47114873,-0.00035646,0.00687987,-0.99997627
1312468455.52322531,-0.00007801,0.00755732,-0.99997144
1312468455.57208538,-0.00014467,0.00755050,-0.99997148
1312468455.62311792,-0.00034047,0.00747105,-0.99997203
1312468455.66309547,-0.00017397,0.00744845,-0.99997224
1312468455.72409344,-0.00015278,0.00738549,-0.99997272
1312468455.77120066,-0.00008085,0.00734723,-0.99997301
1312468455.82309389,-0.00001912,0.00737118,-0.99997283
1312468455.87107944,-0.00010544,0.00754210,-0.99997155
1312468455.92312670,-0.00023212,0.00752726,-0.99997164
1312468455.97108698,-0.00039696,0.00748628,-0.99997190
1312468456.02319050,0.00009516,0.00809642,-0.99996722
1312468456.07108760,-0.00013596,0.00785934,-0.99996911
1312468456.12414360,-0.00028055,0.00793238,-0.99996850
1312468456.17198372,-0.00033276,0.00792554,-0.99996854
1312468456.22308946,-0.00029797,0.00774916,-0.99996993
1312468456.27163959,0.00000540,0.00797550,-0.99996820
1312468456.32422042,-0.00003052,0.00783279,-0.99996932
1312468456.37109232,0.00008663,0.00770487,-0.99997031
1312468456.42356515,-0.00005556,0.00763657,-0.99997084
1312468456.47120118,-0.00020595,0.00768582,-0.99997044
1312468456.52414250,-0.00034344,0.00774982,-0.99996991
1312468456.57108879,-0.00037593,0.00750352,-0.99997178
1312468456.62308502,-0.00058737,0.00786473,-0.99996890
1312468456.67109060,-0.00056320,0.00781238,-0.99996932
1312468456.72022796,-0.00030932,0.00782531,-0.99996933
1312468456.77108026,-0.00003547,0.00835137,-0.99996513
1312468456.82311559,0.00003635,0.00820769,-0.99996632
1312468456.87109971,0.00007176,0.00852977,-0.99996362
1312468456.92028904,0.00006185,0.00852318,-0.99996368
1312468456.97108364,0.00028468,0.00858649,-0.99996309
1312468457.02308536,0.00028438,0.00831154,-0.99996542
1312468457.07121468,0.00026255,0.00815178,-0.99996674
1312468457.12309408,0.00025571,0.00794443,-0.99996841
1312468457.17122650,0.00022179,0.00769225,-0.99997039
1312468457.22310638,0.00024616,0.00788164,-0.99996891
1312468457.27221560,0.00076632,0.00746940,-0.99997181
1312468457.32411337,0.00091718,0.00732144,-0.99997278
1312468457.37121463,0.00110106,0.00707282,-0.99997438
1312468457.42309427,0.00107356,0.00689286,-0.99997567
1312468457.47213888,0.00097721,0.00675128,-0.99997673
1312468457.52359700,0.00056875,0.00626323,-0.99998022
1312468457.57111263,0.00032024,0.00617107,-0.99998091
1312468457.62312937,-0.00000281,0.00597748,-0.99998213
1312468457.67109799,-0.00006376,0.00611825,-0.99998128
1312468457.72327971,-0.00023493,0.00623972,-0.99998051
1312468457.77114129,0.00057138,0.00638191,-0.99997947
1312468457.82308030,0.00061497,0.00663586,-0.99997779
1312468457.87212443,0.00089514,0.00664435,-0.99997753
1312468457.92309380,0.00065471,0.00691386,-0.99997588
1312468457.97119713,0.00069234,0.00687569,-0.99997612
1312468458.02422023,0.00025466,0.00678153,-0.99997697
1312468458.07210922,0.00033247,0.00692508,-0.99997597
1312468458.12421370,0.00035603,0.00698063,-0.99997557
1312468458.17120600,0.00026774,0.00699143,-0.99997552
1312468458.22308421,0.00020983,0.00713902,-0.99997449
1312468458.27211785,0.00102943,0.00793396,-0.99996800
1312468458.32311869,0.00110778,0.00807479,-0.99996678
1312468458.37212443,0.00079304,0.00778302,-0.99996940
1312468458.42412496,0.00064377,0.00786673,-0.99996885
1312468458.47120404,0.00070326,0.00765582,-0.99997045
1312468458.52421188,0.00049709,0.00752283,-0.99997158
1312468458.57120323,0.00027604,0.00750772,-0.99997178
1312468458.62309146,0.00038730,0.00719582,-0.99997403
1312468458.67215466,0.00048079,0.00703179,-0.99997516
1312468458.72336078,0.00060956,0.00722412,-0.99997372
1312468458.77110744,0.00035369,0.00713611,-0.99997448
1312468458.82421589,0.00030540,0.00729976,-0.99997331
1312468458.87214851,0.00038316,0.00733054,-0.99997306
1312468458.92422390,0.00040212,0.00741755,-0.99997241
1312468458.97121286,0.00038893,0.00722699,-0.99997381
1312468459.02307487,0.00016792,0.00729571,-0.99997337
1312468459.07115245,0.00041878,0.00763006,-0.99997080
1312468459.11222887,0.00046137,0.00774824,-0.99996988
1312468459.16337657,0.00055957,0.00784838,-0.99996904
1312468459.22423625,0.00036549,0.00788960,-0.99996881
1312468459.27245927,0.00067076,0.00795985,-0.99996809
1312468459.32422280,0.00077345,0.00805174,-0.99996729
1312468459.37109900,0.00074218,0.00791502,-0.99996840
1312468459.42307997,0.00085230,0.00794317,-0.99996809
1312468459.47120214,0.00051739,0.00779186,-0.99996951
1312468459.52321029,-0.00047912,0.00796166,-0.99996819
1312468459.57224488,-0.00035775,0.00807844,-0.99996730
1312468459.62311220,-0.00014737,0.00813327,-0.99996691
1312468459.67224455,0.00001466,0.00809188,-0.99996726
1312468459.72311616,0.00017486,0.00826639,-0.99996582
1312468459.77111459,-0.00080004,0.00789125,-0.99996854
1312468459.82310319,-0.00054501,0.00776893,-0.99996967
1312468459.87121320,-0.00076895,0.00773700,-0.99996977
1312468459.92336345,-0.00061276,0.00763805,-0.99997064
1312468459.97111249,-0.00071926,0.00756267,-0.99997114
1312468460.02319980,-0.00076138,0.00710803,-0.99997445
1312468460.07207680,-0.00087637,0.00672473,-0.99997700
1312468460.12011814,-0.00084383,0.00665550,-0.99997750
1312468460.17111421,-0.00101716,0.00667608,-0.99997720
1312468460.22310257,-0.00128941,0.00691282,-0.99997527
1312468460.27112889,-0.00148429,0.00630198,-0.99997904
1312468460.32411170,-0.00146707,0.00594252,-0.99998127
1312468460.37109995,-0.00121467,0.00622958,-0.99997986
1312468460.42316437,-0.00133183,0.00581118,-0.99998223
1312468460.47209406,-0.00135197,0.00577396,-0.99998242
1312468460.52318835,-0.00095753,0.00590143,-0.99998213
1312468460.57109642,-0.00077959,0.00578794,-0.99998295
1312468460.62308931,-0.00068212,0.00588223,-0.99998247
1312468460.67155933,-0.00082273,0.00584330,-0.99998259
1312468460.72311616,-0.00071420,0.00586084,-0.99998257
1312468460.77113128,0.00066613,0.00625978,-0.99998019
1312468460.82422423,0.00045872,0.00635641,-0.99997969
1312468460.87120795,0.00045445,0.00652612,-0.99997860
1312468460.92421412,0.00008942,0.00634529,-0.99997986
1312468460.97107482,-0.00010478,0.00641911,-0.99997939
1312468461.02309680,0.00113990,0.00594368,-0.99998169
1312468461.07112288,0.00111685,0.00617198,-0.99998033
1312468461.12309575,0.00102241,0.00614832,-0.99998058
1312468461.17120743,0.00115934,0.00622031,-0.99997998
1312468461.22307634,0.00114604,0.00628766,-0.99997958
1312468461.27221012,0.00076500,0.00633641,-0.99997963
1312468461.32422423,0.00056954,0.00666452,-0.99997763
1312468461.37121487,0.00054229,0.00651079,-0.99997866
1312468461.42308640,0.00038909,0.00649494,-0.99997883
1312468461.47120619,0.00051923,0.00621753,-0.99998054
1312468461.52409863,0.00119706,0.00561693,-0.99998351
1312468461.57211518,0.00133974,0.00586200,-0.99998192
1312468461.62311649,0.00125693,0.00581973,-0.99998228
1312468461.67121077,0.00119967,0.00574867,-0.99998276
1312468461.72421932,0.00124077,0.00567886,-0.99998311
1312468461.77223134,0.00200101,0.00585975,-0.99998083
1312468461.82308483,0.00194941,0.00616455,-0.99997910
1312468461.87107658,0.00187734,0.00590410,-0.99998081
1312468461.92414761,0.00208101,0.00605776,-0.99997949
1312468461.97121096,0.00186569,0.00601534,-0.99998017
1312468462.02422285,0.00277885,0.00562556,-0.99998032
1312468462.07221246,0.00281660,0.00569780,-0.99997980
1312468462.12353730,0.00297719,0.00519643,-0.99998207
1312468462.17207623,0.00293878,0.00541640,-0.99998101
1312468462.22309089,0.00276864,0.00523198,-0.99998248
1312468462.27247691,0.00257816,0.00495918,-0.99998438
1312468462.32422400,0.00247833,0.00529976,-0.99998289
1312468462.37119484,0.00252816,0.00508820,-0.99998386
1312468462.42328405,0.00208536,0.00525118,-0.99998404
1312468462.47120070,0.00228741,0.00520681,-0.99998383
1312468462.52309227,0.00322015,0.00550961,-0.99997964
1312468462.57222962,0.00336804,0.00556331,-0.99997885
1312468462.62308812,0.00336844,0.00573875,-0.99997786
1312468462.67111516,0.00331148,0.00581033,-0.99997764
1312468462.72306252,0.00320876,0.00572135,-0.99997848
1312468462.77107596,0.00344700,0.00603001,-0.99997588
1312468462.82411194,0.00350947,0.00569797,-0.99997761
1312468462.87110662,0.00361811,0.00559664,-0.99997779
1312468462.92018127,0.00369958,0.00541652,-0.99997849
1312468462.97209048,0.00358448,0.00535831,-0.99997922
1312468463.02308345,0.00379151,0.00550096,-0.99997768
1312468463.07108998,0.00391983,0.00533938,-0.99997806
1312468463.12313986,0.00377991,0.00565147,-0.99997689
1312468463.16311860,0.00372088,0.00557442,-0.99997754
1312468463.22422314,0.00365265,0.00548840,-0.99997827
1312468463.27139211,0.00471853,0.00568578,-0.99997270
1312468463.32413149,0.00487123,0.00551761,-0.99997291
1312468463.37113237,0.00486591,0.00551227,-0.99997297
1312468463.41108370,0.00478689,0.00542402,-0.99997383
1312468463.47115755,0.00470949,0.00542598,-0.99997419
1312468463.52413607,0.00395254,0.00446254,-0.99998223
1312468463.57108569,0.00400209,0.00446822,-0.99998201
1312468463.62104297,0.00397573,0.00461509,-0.99998145
1312468463.67228532,0.00406130,0.00443358,-0.99998192
1312468463.72422838,0.00410409,0.00442831,-0.99998177
1312468463.77203107,0.00369639,0.00428679,-0.99998398
1312468463.82310319,0.00373319,0.00461343,-0.99998239
1312468463.87113214,0.00364764,0.00469757,-0.99998231
1312468463.91111088,0.00399815,0.00475584,-0.99998070
1312468463.97111344,0.00404249,0.00500596,-0.99997930
1312468464.02311039,0.00499083,0.00500161,-0.99997504
1312468464.07113361,0.00503596,0.00516634,-0.99997397
1312468464.12411642,0.00522241,0.00502431,-0.99997374
1312468464.16342688,0.00537731,0.00522257,-0.99997190
1312468464.22418833,0.00538534,0.00520251,-0.99997197
1312468464.27218747,0.00542804,0.00489826,-0.99997327
1312468464.32315516,0.00534218,0.00511834,-0.99997263
1312468464.37121129,0.00528577,0.00511999,-0.99997292
1312468464.42327404,0.00523128,0.00493217,-0.99997415
1312468464.47113156,0.00515942,0.00493643,-0.99997451
1312468464.52339435,0.00454400,0.00488954,-0.99997772
1312468464.57221484,0.00471600,0.00501840,-0.99997629
1312468464.62063503,0.00474925,0.00494022,-0.99997652
1312468464.67121005,0.00464339,0.00501785,-0.99997663
1312468464.72311783,0.00446895,0.00488482,-0.99997808
1312468464.77214050,0.00449517,0.00488540,-0.99997796
1312468464.82329321,0.00426097,0.00495866,-0.99997863
1312468464.87120390,0.00427710,0.00502034,-0.99997825
1312468464.91222477,0.00437315,0.00483586,-0.99997874
1312468464.97121048,0.00436425,0.00493547,-0.99997830
1312468465.02048993,0.00383561,0.00482461,-0.99998101
1312468465.07222176,0.00362289,0.00471587,-0.99998232
1312468465.12335682,0.00367722,0.00468235,-0.99998228
1312468465.16314626,0.00375776,0.00468812,-0.99998195
1312468465.22312808,0.00373086,0.00459377,-0.99998249
1312468465.27215123,0.00330251,0.00513785,-0.99998135
1312468465.32319975,0.00323312,0.00535547,-0.99998043
1312468465.37121511,0.00302714,0.00527139,-0.99998152
1312468465.42308903,0.00323776,0.00543859,-0.99997997
1312468465.47120190,0.00309174,0.00536840,-0.99998081
1312468465.52425504,0.00345938,0.00578914,-0.99997726
1312468465.57120800,0.00352973,0.00603394,-0.99997557
1312468465.62036777,0.00350072,0.00583719,-0.99997684
1312468465.67119718,0.00346298,0.00573222,-0.99997757
1312468465.72311807,0.00344749,0.00579372,-0.99997727
1312468465.77120018,0.00480719,0.00596312,-0.99997067
1312468465.82309461,0.00467674,0.00595872,-0.99997131
1312468465.87122202,0.00487042,0.00586998,-0.99997091
1312468465.91219544,0.00473173,0.00617433,-0.99996974
1312468465.97121215,0.00455045,0.00616390,-0.99997065
1312468466.02021980,0.00522217,0.00588109,-0.99996907
1312468466.07199192,0.00505717,0.00566438,-0.99997117
1312468466.12020206,0.00521833,0.00538407,-0.99997189
1312468466.16321468,0.00527288,0.00538856,-0.99997158
1312468466.22321963,0.00521209,0.00536779,-0.99997201
1312468466.27216339,0.00528901,0.00521796,-0.99997240
1312468466.32312918,0.00576212,0.00520684,-0.99996984
1312468466.37117314,0.00554923,0.00552636,-0.99996933
1312468466.42016792,0.00547913,0.00530605,-0.99997091
1312468466.47119045,0.00533774,0.00539459,-0.99997120
1312468466.52312398,0.00453620,0.00515657,-0.99997642
1312468466.57116532,0.00472273,0.00511388,-0.99997577
1312468466.62051415,0.00472831,0.00527494,-0.99997491
1312468466.67211485,0.00497140,0.00546744,-0.99997270
1312468466.72412896,0.00503525,0.00548101,-0.99997230
1312468466.77110720,0.00494615,0.00516113,-0.99997445
1312468466.82093549,0.00498508,0.00512427,-0.99997445
1312468466.87218070,0.00473919,0.00511012,-0.99997571
1312468466.91213250,0.00473348,0.00501851,-0.99997620
1312468466.97221351,0.00480107,0.00500718,-0.99997594
1312468467.02310777,0.00443337,0.00533715,-0.99997593
1312468467.07213497,0.00450381,0.00526998,-0.99997597
1312468467.12430310,0.00440540,0.00541508,-0.99997563
1312468467.16311288,0.00459028,0.00511739,-0.99997637
1312468467.22317433,0.00454759,0.00526482,-0.99997580
1312468467.27212596,0.00448261,0.00563227,-0.99997409
1312468467.32312489,0.00442600,0.00565592,-0.99997421
1312468467.37213302,0.00439411,0.00588717,-0.99997302
1312468467.42317247,0.00448722,0.00589987,-0.99997253
1312468467.47221804,0.00454313,0.00602894,-0.99997151
1312468467.52317882,0.00344398,0.00574251,-0.99997758
1312468467.57119823,0.00316973,0.00571134,-0.99997867
1312468467.62472034,0.00324175,0.00567416,-0.99997865
1312468467.67111778,0.00314984,0.00555409,-0.99997962
1312468467.72408009,0.00324897,0.00592306,-0.99997718
1312468467.77208328,0.00213634,0.00541716,-0.99998305
1312468467.82316661,0.00213851,0.00541506,-0.99998305
1312468467.87119818,0.00181329,0.00524193,-0.99998462
1312468467.91199350,0.00175841,0.00522020,-0.99998483
1312468467.97120190,0.00148018,0.00531558,-0.99998478
1312468468.02416778,0.00133920,0.00516043,-0.99998579
1312468468.07113123,0.00135075,0.00515546,-0.99998580
1312468468.12412453,0.00127288,0.00486423,-0.99998736
1312468468.16323900,0.00117857,0.00474510,-0.99998805
1312468468.22438836,0.00116932,0.00465459,-0.99998848
1312468468.27221632,0.00074659,0.00468119,-0.99998876
1312468468.32317901,0.00079684,0.00473771,-0.99998846
1312468468.37119603,0.00091138,0.00480681,-0.99998803
1312468468.42324185,0.00076751,0.00487782,-0.99998781
1312468468.47119904,0.00074165,0.00494257,-0.99998751
1312468468.52423167,0.00082002,0.00541165,-0.99998502
1312468468.57121038,0.00059516,0.00555211,-0.99998441
1312468468.62309742,0.00054837,0.00526149,-0.99998601
1312468468.67119646,0.00046152,0.00538703,-0.99998538
1312468468.72319746,0.00050587,0.00551961,-0.99998464
1312468468.77121162,0.00068843,0.00639742,-0.99997930
1312468468.82327485,0.00075401,0.00657031,-0.99997813
1312468468.87112451,0.00079194,0.00667577,-0.99997740
1312468468.91225171,0.00093824,0.00663640,-0.99997754
1312468468.97120738,0.00079947,0.00650956,-0.99997849
1312468469.02309060,0.00161898,0.00675696,-0.99997586
1312468469.07122183,0.00157818,0.00670273,-0.99997629
1312468469.12022567,0.00183009,0.00677815,-0.99997535
1312468469.16410851,0.00173348,0.00699714,-0.99997402
1312468469.22420454,0.00170953,0.00689159,-0.99997479
1312468469.27121639,0.00193720,0.00741653,-0.99997062
1312468469.32019806,0.00192568,0.00740777,-0.99997071
1312468469.37219024,0.00217524,0.00735356,-0.99997060
1312468469.41285992,0.00229746,0.00718575,-0.99997154
1312468469.47209978,0.00235630,0.00694788,-0.99997309
1312468469.52308965,0.00290034,0.00746809,-0.99996791
1312468469.57221413,0.00282767,0.00735293,-0.99996897
1312468469.62099934,0.00286731,0.00719518,-0.99997000
1312468469.67208552,0.00310599,0.00733445,-0.99996828
1312468469.72385550,0.00309008,0.00724318,-0.99996899
1312468469.77112293,0.00244523,0.00752175,-0.99996872
1312468469.82309389,0.00256354,0.00738365,-0.99996945
1312468469.87112164,0.00261985,0.00744048,-0.99996889
1312468469.91110396,0.00248244,0.00762317,-0.99996786
1312468469.97209287,0.00259910,0.00783297,-0.99996594
1312468470.02431989,0.00154457,0.00785226,-0.99996798
1312468470.07113314,0.00138645,0.00802395,-0.99996685
1312468470.12425494,0.00123269,0.00812563,-0.99996623
1312468470.16422391,0.00114268,0.00806390,-0.99996683
1312468470.22308087,0.00118984,0.00821161,-0.99996558
1312468470.27221155,0.00101715,0.00769433,-0.99996988
1312468470.32325006,0.00115824,0.00773603,-0.99996941
1312468470.37180710,0.00085224,0.00772611,-0.99996979
1312468470.42320204,0.00075861,0.00764653,-0.99997048
1312468470.47225833,0.00070269,0.00792998,-0.99996831
1312468470.52421927,0.00065906,0.00867734,-0.99996213
1312468470.57256150,0.00071162,0.00853890,-0.99996329
1312468470.62313437,0.00073203,0.00860048,-0.99996275
1312468470.67121315,0.00058844,0.00841980,-0.99996438
1312468470.72422147,0.00039027,0.00826385,-0.99996578
1312468470.77222443,0.00115721,0.00839196,-0.99996412
1312468470.82422328,0.00104829,0.00844798,-0.99996377
1312468470.87120056,0.00084501,0.00852674,-0.99996329
1312468470.92338490,0.00060147,0.00868985,-0.99996206
1312468470.97120905,0.00090550,0.00902025,-0.99995891
1312468471.02053809,0.00008862,0.00943896,-0.99995545
1312468471.07120943,0.00000028,0.00961264,-0.99995380
1312468471.12422037,-0.00004047,0.00946969,-0.99995516
1312468471.17213726,0.00014879,0.00934305,-0.99995634
1312468471.22410440,0.00013982,0.00934103,-0.99995636
1312468471.27214813,-0.00048428,0.00956533,-0.99995413
1312468471.32422209,-0.00062032,0.00978350,-0.99995195
1312468471.37215495,-0.00078213,0.00978131,-0.99995186
1312468471.42309690,-0.00097155,0.00983819,-0.99995113
1312468471.47107601,-0.00105125,0.00992686,-0.99995017
1312468471.52422595,-0.00137362,0.00984487,-0.99995059
1312468471.57220054,-0.00140404,0.01014655,-0.99994754
